Location: Fort Wayne
(41.1310°N, 85.1290°W)
Time: 09:51:06
(UTC-04:00)

COSMOS 2428 - Visible Passes

Search period start: 30 September 2014 00:00
Search period end: 10 October 2014 00:00
Orbit: 844 x 858 km, 71.0° (Epoch: 30 September)

Date Brightness Start Highest point End Pass type
(mag) Time Alt. Az. Time Alt. Az. Time Alt. Az.
04 Oct 5.3 07:08:25 10° NNE 07:11:36 15° NE 07:14:46 10° E visible
05 Oct 5.4 06:56:09 10° NNE 06:59:20 15° NE 07:02:30 10° E visible
06 Oct 5.4 06:43:54 10° NNE 06:47:05 15° NE 06:50:15 10° E visible
07 Oct 5.4 06:31:39 10° NNE 06:34:49 15° NE 06:37:59 10° E visible
08 Oct 5.4 06:19:23 10° NNE 06:22:34 15° NE 06:25:43 10° E visible
09 Oct 5.4 06:07:08 10° NNE 06:10:18 15° NE 06:13:27 10° E visible
